Weather Roundup
Issued by NWS

Home | Current Version | Previous Version | Text Only | Print | Product List | Glossary On
Versions: 1 2 3 4 5 6 7 8 9 10 11 12 13 14 15 16 17 18 19 20 21 22 23 24 25 26 27 28 29 30 31 32 33 34 35 36 37 38 39 40 41 42 43 44 45 46 47 48 49 50
129
NZUS93 KARX 191910
HRRWXR

CURRENT HOURLY OBSERVATIONS ACROSS
MUCH OF THE UPPER MISSISSIPPI VALLEY
NATIONAL WEATHER SERVICE LA CROSSE WI
200 PM CDT SAT AUG 19 2017


...SOUTHEAST MINNESOTA...


CITY           SKY/WX    TMP DP  RH WIND       PRES   REMARKS
ROCHESTER      PTSUNNY   73  63  70 SW8       29.98S
ROCHESTER/MAYO FAIR      77  59  53 W8        29.97F
WINONA         SUNNY     77  57  50 SW6       29.95F
AUSTIN         MOSUNNY   75  63  64 SW6       29.96F
ALBERT LEA     MOSUNNY   79  64  61 SW7       29.96F
DODGE CENTER   MOSUNNY   75  61  60 SW6       29.97F
PRESTON        SUNNY     75  57  53 W9        29.99S
OWATONNA       MOSUNNY   75  64  69 W5        29.96S
FARIBAULT      MOSUNNY   75  64  69 SW8       29.96S
$$

...ELSEWHERE IN MINNESOTA...


CITY           SKY/WX    TMP DP  RH WIND       PRES   REMARKS
MINNEAPOLIS    MOSUNNY   78  61  55 W3        29.94F
INTNL FALLS    MOSUNNY   80  56  43 W9G16     29.83F
DULUTH         SUNNY     79  57  46 W10       29.89F
RED WING       SUNNY     81  57  44 W8        29.93F
REDWOOD FALLS  SUNNY     77  62  59 S7        29.92F
MANKATO        SUNNY     75  63  66 SE8       29.94F
WORTHINGTON    SUNNY     75  62  64 S6        29.96F
FAIRMONT       MOSUNNY   75  63  66 S8        29.95F
$$

...SOUTHWEST WISCONSIN...


CITY           SKY/WX    TMP DP  RH WIND       PRES   REMARKS
LA CROSSE      SUNNY     82  58  43 W8        29.95F
PRAIRIE DU CHI SUNNY     78  56  46 W3        29.96F
BOSCOBEL       SUNNY     82  57  42 NW6       29.96F
LONE ROCK      SUNNY     80  59  48 VRB3      29.96S
PLATTEVILLE    SUNNY     77  63  60 SW3       29.99S
FORT MC COY    SUNNY     77  57  50 W6        29.97S
CAMP DOUGLAS   MOSUNNY   79  59  50 W8        29.95F
MAUSTON-NEW LI CLEAR     78  62  56 NW7       29.95S
VIROQUA        FAIR      76  63  64 W6        29.98F
WIS DELLS      MOSUNNY   80  57  45 W7        29.96F
$$

...ELSEWHERE IN WISCONSIN...


CITY           SKY/WX    TMP DP  RH WIND       PRES   REMARKS
MILWAUKEE      MOSUNNY   83  60  45 VRB7      29.95S
MADISON        MOSUNNY   79  60  52 VRB5      29.96F
GREEN BAY      SUNNY     80  62  54 W13       29.91S
EAU CLAIRE     MOSUNNY   78  58  49 W9        29.93F
BLACK RVR FLS  FAIR      80  55  42 SW7       29.95S
MEDFORD        MOSUNNY   75  60  60 W8        29.95S
WAUSAU         MOSUNNY   78  59  51 W10       29.92F
WIS RAPIDS     MOSUNNY   81  60  48 W12       29.96S
MARSHFIELD     SUNNY     79  56  45 W10       29.95S
RICE LAKE      MOSUNNY   75  61  60 SW6       29.95S
$$

...NORTHEAST IOWA...


CITY           SKY/WX    TMP DP  RH WIND       PRES   REMARKS
WATERLOO       PTSUNNY   79  59  50 S6        29.95F
DUBUQUE        MOSUNNY   76  62  62 SW6       29.98F
DECORAH        SUNNY     77  57  50 VRB5      29.97F
MASON CITY     MOSUNNY   78  61  55 VRB3      29.98F
CHARLES CITY   MOSUNNY   77  63  61 SW5       29.98F
OELWEIN        SUNNY     77  61  57 CALM      29.98F
$$

...ELSEWHERE IN IOWA...


CITY           SKY/WX    TMP DP  RH WIND       PRES   REMARKS
DES MOINES     MOSUNNY   81  63  54 SE6       29.95S
IOWA CITY      SUNNY     82  61  48 SE8       29.98S
FORT DODGE     MOSUNNY   79  64  61 E3        29.97S
MARSHALLTOWN   MOSUNNY   77  64  64 E6        29.96F
CEDAR RAPIDS   SUNNY     79  60  52 VRB5      29.96F
$$

...NORTHERN ILLINOIS...


CITY           SKY/WX    TMP DP  RH WIND       PRES   REMARKS
CHICAGO-OHARE  MOSUNNY   83  53  35 VRB5      29.96S
CHICAGO-MIDWAY MOSUNNY   81  58  45 E9        29.96S
MOLINE         SUNNY     81  60  48 SE8       29.96F
ROCKFORD       MOSUNNY   80  60  50 W6        29.98F
PEORIA         SUNNY     83  57  41 CALM      29.96F
$$

NOTE: "FAIR" INDICATES FEW OR NO CLOUDS BELOW 12,000 FEET WITH NO
SIGNIFICANT WEATHER AND/OR OBSTRUCTIONS TO VISIBILITY. WIND
SPEEDS ARE IN MILES-PER-HOUR.




USA.gov is the U.S. government's official web portal to all federal, state and local government web resources and services.